Previsão horária em Sennaya

Hoje, 25 Junho, Sexta-feira

Tempo Temperatura Precipitação Vento Pressão Humidade
00:00 +24°C° 0.8 mm 3 m/s 750 mmHg 79%
01:00 +22°C° 0.8 mm 3 m/s 750 mmHg 81%
02:00 +21°C° 0.8 mm 3 m/s 750 mmHg 83%
03:00 +21°C° 0.1 mm 2 m/s 750 mmHg 83%
04:00 +21°C° 0.1 mm 2 m/s 750 mmHg 84%
05:00 +21°C° 0.1 mm 2 m/s 750 mmHg 84%
06:00 +24°C° 0 mm 2 m/s 750 mmHg 79%
07:00 +26°C° 0 mm 2 m/s 749 mmHg 74%
08:00 +28°C° 0 mm 3 m/s 749 mmHg 69%
09:00 +30°C° 0 mm 3 m/s 749 mmHg 64%
10:00 +31°C° 0 mm 3 m/s 749 mmHg 58%
11:00 +34°C° 0 mm 4 m/s 749 mmHg 52%
12:00 +34°C° 0 mm 4 m/s 749 mmHg 49%
13:00 +35°C° 0 mm 4 m/s 749 mmHg 46%
14:00 +36°C° 0 mm 4 m/s 749 mmHg 42%
15:00 +35°C° 0 mm 3 m/s 748 mmHg 45%
16:00 +35°C° 0 mm 3 m/s 748 mmHg 48%
17:00 +35°C° 0 mm 3 m/s 747 mmHg 51%
18:00 +33°C° 0 mm 3 m/s 747 mmHg 58%
19:00 +30°C° 0 mm 3 m/s 747 mmHg 66%
20:00 +28°C° 0 mm 3 m/s 747 mmHg 73%
21:00 +27°C° 0 mm 3 m/s 747 mmHg 75%
22:00 +26°C° 0 mm 3 m/s 747 mmHg 76%
23:00 +25°C° 0 mm 3 m/s 748 mmHg 78%

Amanhã, 26 Junho, Sábado

Tempo Temperatura Precipitação Vento Pressão Humidade
00:00 +24°C° 0.4 mm 2 m/s 747 mmHg 81%
01:00 +23°C° 0.4 mm 1 m/s 747 mmHg 84%
02:00 +23°C° 0.4 mm 1 m/s 747 mmHg 87%
03:00 +23°C° 0 mm 1 m/s 747 mmHg 87%
04:00 +23°C° 0 mm 1 m/s 747 mmHg 86%
05:00 +23°C° 0 mm 1 m/s 747 mmHg 85%
06:00 +25°C° 0 mm 1 m/s 747 mmHg 81%
07:00 +26°C° 0 mm 1 m/s 747 mmHg 76%
08:00 +27°C° 0 mm 1 m/s 747 mmHg 71%
09:00 +28°C° 0 mm 1 m/s 747 mmHg 67%
10:00 +30°C° 0 mm 1 m/s 747 mmHg 62%
11:00 +31°C° 0 mm 1 m/s 747 mmHg 58%
12:00 +31°C° 0.1 mm 1 m/s 747 mmHg 57%
13:00 +32°C° 0.1 mm 2 m/s 747 mmHg 55%
14:00 +32°C° 0.1 mm 2 m/s 747 mmHg 54%
15:00 +30°C° 2.8 mm 2 m/s 746 mmHg 61%
16:00 +29°C° 2.8 mm 3 m/s 746 mmHg 68%
17:00 +27°C° 2.8 mm 4 m/s 746 mmHg 75%
18:00 +25°C° 4.1 mm 4 m/s 746 mmHg 81%
19:00 +22°C° 4.1 mm 4 m/s 747 mmHg 87%
20:00 +19°C° 4.1 mm 4 m/s 747 mmHg 94%
21:00 +19°C° 0.3 mm 4 m/s 747 mmHg 94%
22:00 +19°C° 0.3 mm 3 m/s 746 mmHg 93%
23:00 +19°C° 0.3 mm 3 m/s 746 mmHg 93%

Depois de amanhã, 27 Junho, Domingo

Tempo Temperatura Precipitação Vento Pressão Humidade
00:00 +19°C° 0 mm 2 m/s 746 mmHg 94%
01:00 +19°C° 0 mm 2 m/s 746 mmHg 94%
02:00 +19°C° 0 mm 1 m/s 746 mmHg 95%
03:00 +20°C° 0.2 mm 1 m/s 746 mmHg 95%
04:00 +20°C° 0.2 mm 1 m/s 746 mmHg 95%
05:00 +20°C° 0.2 mm 1 m/s 746 mmHg 95%
06:00 +21°C° 0 mm 1 m/s 746 mmHg 91%
07:00 +23°C° 0 mm 1 m/s 746 mmHg 86%
08:00 +24°C° 0 mm 2 m/s 746 mmHg 82%
09:00 +25°C° 0 mm 2 m/s 746 mmHg 77%
10:00 +26°C° 0 mm 2 m/s 746 mmHg 72%
11:00 +27°C° 0 mm 3 m/s 746 mmHg 67%
12:00 +27°C° 0.1 mm 3 m/s 746 mmHg 67%
13:00 +27°C° 0.1 mm 4 m/s 746 mmHg 67%
14:00 +27°C° 0.1 mm 4 m/s 746 mmHg 67%
15:00 +27°C° 0 mm 4 m/s 746 mmHg 68%
16:00 +27°C° 0 mm 5 m/s 746 mmHg 69%
17:00 +27°C° 0 mm 5 m/s 746 mmHg 70%
18:00 +25°C° 0 mm 5 m/s 746 mmHg 75%
19:00 +22°C° 0 mm 4 m/s 746 mmHg 80%
20:00 +21°C° 0 mm 4 m/s 746 mmHg 84%
21:00 +20°C° 0 mm 4 m/s 746 mmHg 85%
22:00 +20°C° 0 mm 4 m/s 746 mmHg 86%
23:00 +19°C° 0 mm 5 m/s 746 mmHg 86%

28 Junho, Segunda-feira

Tempo Temperatura Precipitação Vento Pressão Humidade
00:00 +19°C° 0 mm 5 m/s 746 mmHg 87%
01:00 +19°C° 0 mm 4 m/s 746 mmHg 88%
02:00 +18°C° 0 mm 4 m/s 746 mmHg 89%
03:00 +18°C° 0 mm 4 m/s 746 mmHg 89%
04:00 +18°C° 0 mm 4 m/s 746 mmHg 89%
05:00 +18°C° 0 mm 4 m/s 746 mmHg 89%
06:00 +19°C° 0 mm 5 m/s 746 mmHg 84%
07:00 +20°C° 0 mm 5 m/s 746 mmHg 80%
08:00 +21°C° 0 mm 6 m/s 746 mmHg 76%
09:00 +21°C° 0 mm 6 m/s 746 mmHg 73%
10:00 +22°C° 0 mm 6 m/s 746 mmHg 71%
11:00 +23°C° 0 mm 6 m/s 746 mmHg 68%
12:00 +23°C° 0 mm 6 m/s 747 mmHg 67%
13:00 +23°C° 0 mm 6 m/s 747 mmHg 65%
14:00 +24°C° 0 mm 6 m/s 747 mmHg 64%
15:00 +24°C° 0.1 mm 6 m/s 747 mmHg 64%
16:00 +25°C° 0.1 mm 5 m/s 747 mmHg 64%
17:00 +25°C° 0.1 mm 5 m/s 747 mmHg 65%
18:00 +22°C° 0 mm 4 m/s 747 mmHg 71%
19:00 +21°C° 0 mm 3 m/s 747 mmHg 77%
20:00 +19°C° 0 mm 3 m/s 747 mmHg 83%
21:00 +18°C° 0 mm 3 m/s 747 mmHg 84%
22:00 +18°C° 0 mm 3 m/s 746 mmHg 85%
23:00 +17°C° 0 mm 3 m/s 746 mmHg 86%

29 Junho, Terça-feira

Tempo Temperatura Precipitação Vento Pressão Humidade
00:00 +17°C° 0 mm 3 m/s 746 mmHg 87%
01:00 +16°C° 0 mm 3 m/s 746 mmHg 88%
02:00 +16°C° 0 mm 3 m/s 746 mmHg 90%
03:00 +16°C° 0 mm 3 m/s 746 mmHg 89%
04:00 +16°C° 0 mm 3 m/s 746 mmHg 88%
05:00 +16°C° 0 mm 3 m/s 746 mmHg 88%
06:00 +18°C° 0 mm 3 m/s 746 mmHg 82%
07:00 +20°C° 0 mm 4 m/s 746 mmHg 77%
08:00 +21°C° 0 mm 4 m/s 746 mmHg 71%
09:00 +22°C° 0.7 mm 4 m/s 746 mmHg 69%
10:00 +22°C° 0.7 mm 4 m/s 746 mmHg 67%
11:00 +23°C° 0.7 mm 4 m/s 746 mmHg 66%
12:00 +23°C° 0.4 mm 4 m/s 746 mmHg 67%
13:00 +22°C° 0.4 mm 3 m/s 746 mmHg 68%
14:00 +22°C° 0.4 mm 3 m/s 746 mmHg 69%
15:00 +21°C° 0.4 mm 2 m/s 746 mmHg 73%
16:00 +21°C° 0.4 mm 2 m/s 746 mmHg 76%
17:00 +21°C° 0.4 mm 1 m/s 746 mmHg 80%
18:00 +21°C° 0.1 mm 1 m/s 746 mmHg 81%
19:00 +20°C° 0.1 mm 1 m/s 746 mmHg 82%
20:00 +19°C° 0.1 mm 2 m/s 746 mmHg 84%
21:00 +18°C° 0 mm 2 m/s 746 mmHg 85%
22:00 +18°C° 0 mm 2 m/s 746 mmHg 87%
23:00 +17°C° 0 mm 3 m/s 746 mmHg 88%

30 Junho, Quarta-feira

Tempo Temperatura Precipitação Vento Pressão Humidade
00:00 +17°C° 0 mm 3 m/s 746 mmHg 89%
01:00 +17°C° 0 mm 3 m/s 746 mmHg 91%
02:00 +16°C° 0 mm 3 m/s 746 mmHg 92%
03:00 +17°C° 0 mm 3 m/s 746 mmHg 92%
04:00 +17°C° 0 mm 3 m/s 746 mmHg 92%
05:00 +17°C° 0 mm 3 m/s 746 mmHg 92%
06:00 +18°C° 0 mm 3 m/s 746 mmHg 85%
07:00 +20°C° 0 mm 3 m/s 746 mmHg 79%
08:00 +22°C° 0 mm 3 m/s 746 mmHg 72%
09:00 +24°C° 0 mm 3 m/s 746 mmHg 67%
10:00 +26°C° 0 mm 4 m/s 746 mmHg 61%
11:00 +27°C° 0 mm 4 m/s 746 mmHg 56%
12:00 +27°C° 0 mm 4 m/s 746 mmHg 53%
13:00 +28°C° 0 mm 4 m/s 746 mmHg 51%
14:00 +29°C° 0 mm 3 m/s 746 mmHg 49%
15:00 +28°C° 0 mm 3 m/s 745 mmHg 53%
16:00 +28°C° 0 mm 3 m/s 745 mmHg 57%
17:00 +28°C° 0 mm 2 m/s 745 mmHg 60%
18:00 +26°C° 0 mm 2 m/s 745 mmHg 64%
19:00 +25°C° 0 mm 2 m/s 744 mmHg 68%
20:00 +24°C° 0 mm 2 m/s 744 mmHg 72%
21:00 +22°C° 0 mm 3 m/s 744 mmHg 72%
22:00 +22°C° 0 mm 3 m/s 744 mmHg 73%
23:00 +21°C° 0 mm 3 m/s 744 mmHg 73%
Mostrar mais

Necessitamos do seu Consentimento

A Meteoprog e os seus Fornecedores de Serviços podem armazenar e aceder a dados pessoais como cookies, identificadores do dispositivo ou outras tecnologias semelhantes existentes no seu dispositivo e processar estes dados para personalizar conteúdos e anúncios, assim como funcionalidades nas redes sociais e análise de tráfego.

  • Armazenar e/ou aceder a informações no seu dispositivo

    Os cookies, identificadores do dispositivo ou outras informações podem ser armazenados ou acedidos no seu dispositivo, para os fins acima indicados.

  • Anúncios e conteúdos personalizados, medição de anúncios e conteúdos, dados sobre o público-alvo e desenvolvimento de produtos

    Os anúncios e os conteúdos podem ser personalizados com base num perfil. Podem ser adicionados dados adicionais para uma maior personalização dos anúncios e dos conteúdos. A eficácia dos anúncios e dos conteúdos pode ser medida. Podem ser obtidas informações sobre o público que visualizou os anúncios e os conteúdos. Estes dados podem ser usados para desenvolver ou melhorar sistemas, softwares ou a experiência do utilizador.

Ao clicar em "Eu concordo”, permitirá o uso de cookies, identificadores do dispositivo e web beacons mencionados ou outras tecnologias semelhantes. As configurações do navegador do seu dispositivo podem ser alteradas.

Para certos fins, podem ser invocados interesses legítimos ao invés de consentimento. Pode ler mais informação sobre este assunto na nossa Política de Privacidade e Cookies.